Time,TemperatureF,DewpointF,PressureIn,WindDirection,WindDirectionDegrees,WindSpeedMPH,WindSpeedGustMPH,Humidity,HourlyPrecipIn,Conditions,Clouds,dailyrainin,SoftwareType,DateUTC
2013-03-22 00:01:00,20.3,19.0,30.06,SW,235,0.0,2.0,93,0.00,,,0.01,weatherlink.com 1.10,2013-03-22 06:01:00,
2013-03-22 00:16:00,20.0,18.0,30.07,SW,235,0.0,0.0,93,0.00,,,0.01,weatherlink.com 1.10,2013-03-22 06:16:00,
2013-03-22 00:31:00,19.0,17.0,30.07,ENE,77,0.0,1.0,92,0.00,,,0.01,weatherlink.com 1.10,2013-03-22 06:31:00,
2013-03-22 00:46:00,19.1,18.0,30.06,ENE,77,0.0,0.0,94,0.00,,,0.01,weatherlink.com 1.10,2013-03-22 06:46:00,
2013-03-22 01:01:00,19.3,18.0,30.05,ENE,77,0.0,0.0,94,0.00,,,0.01,weatherlink.com 1.10,2013-03-22 07:01:00,
2013-03-22 01:16:00,19.2,18.0,30.05,NE,56,0.0,1.0,94,0.00,,,0.01,weatherlink.com 1.10,2013-03-22 07:16:00,
2013-03-22 01:31:00,19.3,18.0,30.06,ENE,57,0.0,1.0,94,0.00,,,0.01,weatherlink.com 1.10,2013-03-22 07:31:00,
2013-03-22 01:46:00,18.7,17.0,30.05,ENE,66,0.0,1.0,92,0.00,,,0.01,weatherlink.com 1.10,2013-03-22 07:46:00,
2013-03-22 02:01:00,18.2,17.0,30.05,NE,37,0.0,1.0,93,0.00,,,0.01,weatherlink.com 1.10,2013-03-22 08:01:00,
2013-03-22 02:16:00,18.8,17.0,30.05,NE,37,0.0,1.0,94,0.00,,,0.01,weatherlink.com 1.10,2013-03-22 08:16:00,
2013-03-22 02:31:00,19.1,17.0,30.04,NE,37,0.0,0.0,93,0.00,,,0.01,weatherlink.com 1.10,2013-03-22 08:31:00,
2013-03-22 02:46:00,19.3,18.0,30.05,NE,37,0.0,0.0,93,0.00,,,0.01,weatherlink.com 1.10,2013-03-22 08:46:00,
2013-03-22 03:01:00,19.4,18.0,30.05,WSW,238,0.0,0.0,93,0.00,,,0.01,weatherlink.com 1.10,2013-03-22 09:01:00,
2013-03-22 03:16:00,19.2,17.0,30.05,East,94,0.0,0.0,92,0.00,,,0.01,weatherlink.com 1.10,2013-03-22 09:16:00,
2013-03-22 03:31:00,19.3,17.0,30.05,East,82,0.0,0.0,92,0.00,,,0.01,weatherlink.com 1.10,2013-03-22 09:31:00,
2013-03-22 03:46:00,19.3,17.0,30.04,East,82,0.0,0.0,92,0.00,,,0.01,weatherlink.com 1.10,2013-03-22 09:46:00,
2013-03-22 04:01:00,19.4,18.0,30.04,East,82,0.0,0.0,93,0.00,,,0.01,weatherlink.com 1.10,2013-03-22 10:01:00,
2013-03-22 04:16:00,19.7,18.0,30.04,SW,235,1.0,1.0,93,0.00,,,0.01,weatherlink.com 1.10,2013-03-22 10:16:00,
2013-03-22 04:31:00,19.4,18.0,30.04,WSW,237,0.0,1.0,92,0.00,,,0.01,weatherlink.com 1.10,2013-03-22 10:31:00,
2013-03-22 04:46:00,19.3,17.0,30.03,ENE,66,1.0,1.0,92,0.00,,,0.01,weatherlink.com 1.10,2013-03-22 10:46:00,
2013-03-22 05:01:00,19.1,17.0,30.03,WNW,299,0.0,1.0,92,0.00,,,0.01,weatherlink.com 1.10,2013-03-22 11:01:00,
2013-03-22 05:16:00,19.1,17.0,30.04,NE,36,0.0,1.0,92,0.00,,,0.01,weatherlink.com 1.10,2013-03-22 11:16:00,
2013-03-22 05:32:00,19.3,17.0,30.04,WSW,240,0.0,1.0,92,0.00,,,0.01,weatherlink.com 1.10,2013-03-22 11:32:00,
2013-03-22 05:46:00,19.3,17.0,30.04,West,270,0.0,1.0,91,0.00,,,0.01,weatherlink.com 1.10,2013-03-22 11:46:00,
2013-03-22 06:01:00,19.1,17.0,30.05,ENE,65,0.0,1.0,91,0.00,,,0.00,weatherlink.com 1.10,2013-03-22 12:01:00,
2013-03-22 06:16:00,19.0,17.0,30.05,WSW,240,0.0,0.0,91,0.00,,,0.00,weatherlink.com 1.10,2013-03-22 12:16:00,
2013-03-22 06:32:00,19.0,17.0,30.05,SW,235,0.0,1.0,91,0.00,,,0.00,weatherlink.com 1.10,2013-03-22 12:32:00,
2013-03-22 06:46:00,18.9,17.0,30.05,SW,232,0.0,1.0,91,0.00,,,0.00,weatherlink.com 1.10,2013-03-22 12:46:00,
2013-03-22 07:02:00,18.9,17.0,30.06,WSW,245,0.0,0.0,91,0.00,,,0.00,weatherlink.com 1.10,2013-03-22 13:02:00,
2013-03-22 07:17:00,18.9,17.0,30.06,WSW,238,0.0,1.0,91,0.00,,,0.00,weatherlink.com 1.10,2013-03-22 13:17:00,
2013-03-22 07:32:00,19.0,17.0,30.06,WNW,288,0.0,1.0,91,0.00,,,0.00,weatherlink.com 1.10,2013-03-22 13:32:00,
2013-03-22 07:47:00,18.7,17.0,30.07,WSW,243,0.0,1.0,92,0.00,,,0.00,weatherlink.com 1.10,2013-03-22 13:47:00,
2013-03-22 08:02:00,18.8,17.0,30.07,WSW,248,0.0,2.0,92,0.00,,,0.00,weatherlink.com 1.10,2013-03-22 14:02:00,
2013-03-22 08:17:00,18.8,17.0,30.07,SW,236,0.0,0.0,91,0.00,,,0.00,weatherlink.com 1.10,2013-03-22 14:17:00,
2013-03-22 08:32:00,18.1,16.0,30.08,SW,236,0.0,0.0,91,0.00,,,0.00,weatherlink.com 1.10,2013-03-22 14:32:00,
2013-03-22 08:47:00,17.9,16.0,30.08,ENE,68,0.0,0.0,91,0.00,,,0.00,weatherlink.com 1.10,2013-03-22 14:47:00,
2013-03-22 09:17:00,21.2,18.0,30.09,WSW,250,0.0,2.0,86,0.00,,,0.00,weatherlink.com 1.10,2013-03-22 15:17:00,
2013-03-22 09:32:00,20.9,17.0,30.09,SW,235,0.0,1.0,86,0.00,,,0.00,weatherlink.com 1.10,2013-03-22 15:32:00,
2013-03-22 09:47:00,23.2,19.0,30.09,SW,228,0.0,1.0,83,0.00,,,0.00,weatherlink.com 1.10,2013-03-22 15:47:00,
2013-03-22 10:02:00,26.2,20.0,30.09,SW,221,0.0,2.0,77,0.00,,,0.00,weatherlink.com 1.10,2013-03-22 16:02:00,
2013-03-22 10:17:00,26.0,19.0,30.09,WSW,245,3.0,4.0,76,0.00,,,0.00,weatherlink.com 1.10,2013-03-22 16:17:00,
2013-03-22 10:32:00,27.3,20.0,30.09,WSW,239,1.0,2.0,73,0.00,,,0.00,weatherlink.com 1.10,2013-03-22 16:32:00,
2013-03-22 10:47:00,27.0,18.0,30.09,WSW,253,0.0,3.0,68,0.00,,,0.00,weatherlink.com 1.10,2013-03-22 16:47:00,
2013-03-22 11:02:00,26.4,16.0,30.09,WSW,250,2.0,3.0,66,0.00,,,0.00,weatherlink.com 1.10,2013-03-22 17:02:00,
2013-03-22 11:17:00,26.1,16.0,30.10,SW,224,2.0,3.0,65,0.00,,,0.00,weatherlink.com 1.10,2013-03-22 17:17:00,
2013-03-22 11:32:00,26.6,17.0,30.10,West,269,1.0,3.0,67,0.00,,,0.00,weatherlink.com 1.10,2013-03-22 17:32:00,
2013-03-22 11:47:00,29.7,17.0,30.10,SW,229,2.0,5.0,60,0.00,,,0.00,weatherlink.com 1.10,2013-03-22 17:47:00,
2013-03-22 12:02:00,28.2,16.0,30.10,WSW,255,2.0,6.0,60,0.01,,,0.01,weatherlink.com 1.10,2013-03-22 18:02:00,
2013-03-22 12:17:00,29.9,17.0,30.10,SW,236,5.0,6.0,58,0.01,,,0.01,weatherlink.com 1.10,2013-03-22 18:17:00,
2013-03-22 12:32:00,31.2,17.0,30.10,SW,222,1.0,4.0,56,0.01,,,0.01,weatherlink.com 1.10,2013-03-22 18:32:00,
2013-03-22 12:47:00,32.6,16.0,30.09,SW,229,4.0,5.0,51,0.01,,,0.01,weatherlink.com 1.10,2013-03-22 18:47:00,
2013-03-22 13:03:00,30.4,18.0,30.10,SW,225,3.0,8.0,61,0.02,,,0.03,weatherlink.com 1.10,2013-03-22 19:03:00,
2013-03-22 13:18:00,28.1,15.0,30.10,SW,228,1.0,5.0,59,0.02,,,0.03,weatherlink.com 1.10,2013-03-22 19:18:00,
2013-03-22 13:33:00,29.4,18.0,30.09,WSW,246,2.0,4.0,62,0.02,,,0.03,weatherlink.com 1.10,2013-03-22 19:33:00,
2013-03-22 13:48:00,30.9,17.0,30.09,SW,217,2.0,6.0,57,0.03,,,0.04,weatherlink.com 1.10,2013-03-22 19:48:00,
2013-03-22 14:03:00,31.7,17.0,30.09,WSW,248,5.0,6.0,54,0.02,,,0.05,weatherlink.com 1.10,2013-03-22 20:03:00,
2013-03-22 14:18:00,30.7,18.0,30.09,SW,232,5.0,8.0,60,0.02,,,0.05,weatherlink.com 1.10,2013-03-22 20:18:00,
2013-03-22 14:33:00,31.2,17.0,30.08,SW,219,4.0,7.0,56,0.02,,,0.05,weatherlink.com 1.10,2013-03-22 20:33:00,
2013-03-22 14:48:00,31.6,17.0,30.08,SW,235,3.0,8.0,55,0.01,,,0.05,weatherlink.com 1.10,2013-03-22 20:48:00,
2013-03-22 15:03:00,31.8,14.0,30.08,SW,232,4.0,5.0,49,0.00,,,0.05,weatherlink.com 1.10,2013-03-22 21:03:00,
2013-03-22 15:18:00,32.3,16.0,30.08,WSW,253,3.0,7.0,52,0.00,,,0.05,weatherlink.com 1.10,2013-03-22 21:18:00,
2013-03-22 15:33:00,31.0,13.0,30.08,West,262,2.0,5.0,48,0.00,,,0.05,weatherlink.com 1.10,2013-03-22 21:33:00,
2013-03-22 15:48:00,32.2,12.0,30.08,SSW,197,6.0,6.0,44,0.00,,,0.05,weatherlink.com 1.10,2013-03-22 21:48:00,
2013-03-22 16:03:00,31.0,10.0,30.07,WSW,248,5.0,9.0,41,0.00,,,0.05,weatherlink.com 1.10,2013-03-22 22:03:00,
2013-03-22 16:18:00,31.5,14.0,30.08,SW,229,2.0,8.0,48,0.00,,,0.05,weatherlink.com 1.10,2013-03-22 22:18:00,
2013-03-22 16:33:00,31.3,17.0,30.09,WSW,240,3.0,7.0,56,0.00,,,0.05,weatherlink.com 1.10,2013-03-22 22:33:00,
2013-03-22 16:48:00,27.5,15.0,30.10,WSW,245,1.0,10.0,59,0.00,,,0.05,weatherlink.com 1.10,2013-03-22 22:48:00,
2013-03-22 17:03:00,26.6,13.0,30.10,WSW,238,4.0,6.0,57,0.00,,,0.05,weatherlink.com 1.10,2013-03-22 23:03:00,
2013-03-22 17:18:00,26.6,12.0,30.11,ESE,105,0.0,4.0,54,0.00,,,0.05,weatherlink.com 1.10,2013-03-22 23:18:00,
2013-03-22 17:33:00,26.7,10.0,30.11,WSW,252,3.0,5.0,50,0.00,,,0.05,weatherlink.com 1.10,2013-03-22 23:33:00,
2013-03-22 17:48:00,27.4,11.0,30.11,WSW,241,0.0,3.0,50,0.00,,,0.05,weatherlink.com 1.10,2013-03-22 23:48:00,
2013-03-22 18:03:00,26.0,15.0,30.12,WSW,242,0.0,8.0,64,0.00,,,0.05,weatherlink.com 1.10,2013-03-23 00:03:00,
2013-03-22 18:18:00,26.4,14.0,30.12,WSW,237,4.0,5.0,59,0.00,,,0.05,weatherlink.com 1.10,2013-03-23 00:18:00,
2013-03-22 18:33:00,27.0,12.0,30.12,WSW,257,3.0,3.0,53,0.00,,,0.05,weatherlink.com 1.10,2013-03-23 00:33:00,
2013-03-22 18:48:00,26.3,11.0,30.13,WSW,238,1.0,6.0,53,0.00,,,0.05,weatherlink.com 1.10,2013-03-23 00:48:00,
2013-03-22 19:03:00,24.7,12.0,30.14,WSW,242,4.0,15.0,60,0.00,,,0.05,weatherlink.com 1.10,2013-03-23 01:03:00,
2013-03-22 19:18:00,23.7,13.0,30.15,SW,225,5.0,7.0,63,0.00,,,0.05,weatherlink.com 1.10,2013-03-23 01:18:00,
2013-03-22 19:33:00,23.4,10.0,30.16,WSW,249,0.0,8.0,58,0.00,,,0.05,weatherlink.com 1.10,2013-03-23 01:33:00,
2013-03-22 19:48:00,22.9,11.0,30.16,SW,235,1.0,5.0,61,0.00,,,0.05,weatherlink.com 1.10,2013-03-23 01:48:00,
2013-03-22 20:03:00,22.5,12.0,30.17,SW,226,2.0,5.0,64,0.00,,,0.05,weatherlink.com 1.10,2013-03-23 02:03:00,
2013-03-22 20:18:00,22.1,12.0,30.18,WSW,242,1.0,4.0,65,0.00,,,0.05,weatherlink.com 1.10,2013-03-23 02:18:00,
2013-03-22 20:33:00,21.3,12.0,30.18,SW,224,2.0,3.0,68,0.00,,,0.05,weatherlink.com 1.10,2013-03-23 02:33:00,
2013-03-22 20:48:00,20.2,15.0,30.19,WSW,246,1.0,3.0,79,0.00,,,0.05,weatherlink.com 1.10,2013-03-23 02:48:00,
2013-03-22 21:03:00,19.0,14.0,30.20,SW,225,1.0,2.0,79,0.00,,,0.05,weatherlink.com 1.10,2013-03-23 03:03:00,
2013-03-22 21:18:00,19.0,12.0,30.20,West,270,0.0,3.0,73,0.00,,,0.05,weatherlink.com 1.10,2013-03-23 03:18:00,
2013-03-22 21:33:00,18.5,12.0,30.21,West,271,1.0,2.0,74,0.00,,,0.05,weatherlink.com 1.10,2013-03-23 03:33:00,
2013-03-22 21:48:00,18.5,12.0,30.22,SW,228,2.0,4.0,74,0.00,,,0.05,weatherlink.com 1.10,2013-03-23 03:48:00,
2013-03-22 22:03:00,17.7,12.0,30.22,WSW,242,2.0,4.0,77,0.00,,,0.05,weatherlink.com 1.10,2013-03-23 04:03:00,
2013-03-22 22:18:00,17.8,11.0,30.22,West,281,0.0,3.0,76,0.00,,,0.05,weatherlink.com 1.10,2013-03-23 04:18:00,
2013-03-22 22:34:00,16.8,11.0,30.23,WNW,297,0.0,1.0,77,0.00,,,0.05,weatherlink.com 1.10,2013-03-23 04:34:00,
2013-03-22 22:49:00,16.3,11.0,30.23,WNW,284,0.0,2.0,78,0.00,,,0.05,weatherlink.com 1.10,2013-03-23 04:49:00,
2013-03-22 23:04:00,15.9,10.0,30.24,SW,236,0.0,4.0,78,0.00,,,0.05,weatherlink.com 1.10,2013-03-23 05:04:00,
2013-03-22 23:19:00,16.0,10.0,30.23,WSW,256,0.0,4.0,76,0.00,,,0.05,weatherlink.com 1.10,2013-03-23 05:19:00,
2013-03-22 23:34:00,16.1,9.0,30.24,WSW,246,2.0,3.0,74,0.00,,,0.05,weatherlink.com 1.10,2013-03-23 05:34:00,
2013-03-22 23:49:00,14.3,8.0,30.24,WSW,248,2.0,2.0,76,0.00,,,0.05,weatherlink.com 1.10,2013-03-23 05:49:00,